Home > Weather > Taipei > Past weeks

Flag for Taiwan Past Weather in Taipei, Taiwan — Yesterday and Last 2 Weeks

Now
86 °F

Passing clouds.


Feels Like: 95 °F
Forecast: 84 / 96 °F
Wind: 6 mph from East

Location: Sungshan / Taipei

Current Time: Jul 29, 2016 at 12:33:46 AM

Latest Report: Jul 29, 2016 at 12:00 AM


Visibility: N/A

Pressure: 29.77 "Hg

Humidity: 70%

Dew Point: 75 °F

Location of TaipeiLocation

Past Weather in Taipei — Graph

°F

Taipei Temperature Yesterday

Maximum temperature yesterday: 99 °F (at 11:30 AM)
Minimum temperature yesterday: 82 °F (at 5:00 AM)
Average temperature yesterday: 91 °F

High & Low Weather Summary for the Past Weeks

 TemperatureHumidityPressure
High99 °F (Jul 16, 12:55 PM)84% (Jul 17, 2:00 AM)29.89 "Hg (Jul 17, 2:00 AM)
Low77 °F (Jul 18, 3:30 PM)33% (Jul 28, 11:30 AM)29.65 "Hg (Jul 15, 1:30 PM)
Average88 °F61%29.78 "Hg
* Reported Jul 13 11:00 PM — Jul 28 11:00 PM, Taipei, Weather by CustomWeather, © 2016

Note: Actual official high and low records may vary slightly from our data, if they occured in-between our weather recording intervals... More about our weather records

Advertising

Taipei Weather History for the Previous 24 Hours

Scroll right to see more
 ConditionsComfort  
Time TempWeatherWind HumidityBarometerVisibility
11:00 PM
Thu, Jul 28
88 °FPassing clouds.2 mph66%29.80 "HgN/A
10:30 PM86 °FPassing clouds.6 mph66%29.80 "HgN/A
10:00 PM88 °FPassing clouds.2 mph66%29.80 "HgN/A
9:30 PM88 °FPassing clouds.3 mph66%29.80 "HgN/A
9:00 PM88 °FPassing clouds.2 mph70%29.77 "HgN/A
8:30 PM88 °FPassing clouds.2 mph70%29.77 "HgN/A
8:00 PM88 °FPassing clouds.6 mph70%29.77 "HgN/A
7:30 PM88 °FPassing clouds.7 mph70%29.77 "HgN/A
7:00 PM90 °FPassing clouds.5 mph67%29.77 "HgN/A
6:30 PM90 °FPassing clouds.5 mph63%29.74 "HgN/A
6:00 PM91 °FPassing clouds.7 mph59%29.74 "HgN/A
5:30 PM91 °FPassing clouds.9 mph59%29.74 "HgN/A
5:00 PM93 °FPassing clouds.7 mph56%29.71 "HgN/A
4:30 PM95 °FPassing clouds.5 mph47%29.71 "HgN/A
4:00 PM95 °FPassing clouds.5 mph53%29.74 "HgN/A
3:30 PM97 °FPassing clouds.5 mph50%29.74 "HgN/A
3:00 PM97 °FScattered clouds.7 mph39%29.71 "HgN/A
2:30 PM97 °FPassing clouds.8 mph42%29.71 "HgN/A
2:00 PM97 °FPassing clouds.10 mph47%29.71 "HgN/A
1:30 PM97 °FPassing clouds.14 mph42%29.71 "HgN/A
1:00 PM99 °FPassing clouds.13 mph39%29.71 "HgN/A
12:30 PM99 °FScattered clouds.9 mph35%29.71 "HgN/A
12:00 PM99 °FPassing clouds.6 mph33%29.74 "HgN/A
11:30 AM99 °FPassing clouds.5 mph33%29.74 "HgN/A
11:00 AM97 °FPassing clouds.5 mph37%29.74 "HgN/A
10:30 AM95 °FPassing clouds.5 mph39%29.74 "HgN/A
10:00 AM93 °FPassing clouds.6 mph47%29.77 "HgN/A
9:30 AM93 °FPassing clouds.2 mph47%29.77 "HgN/A
9:00 AM91 °FPassing clouds.5 mph49%29.77 "HgN/A
8:30 AM90 °FSunny.3 mph52%29.77 "Hg10 mi
8:00 AM90 °FSunny.1 mph52%29.77 "Hg10 mi
7:30 AM88 °FPassing clouds.2 mph59%29.80 "HgN/A
7:00 AM88 °FPassing clouds.1 mph62%29.80 "HgN/A
6:30 AM84 °FPassing clouds.3 mph70%29.77 "HgN/A
6:00 AM82 °FPassing clouds.2 mph74%29.77 "HgN/A
5:00 AM82 °FPassing clouds.1 mph70%29.77 "HgN/A
4:00 AM84 °FPassing clouds.8 mph66%29.77 "HgN/A
3:00 AM84 °FPassing clouds.7 mph70%29.77 "HgN/A
2:00 AM84 °FPassing clouds.7 mph70%29.77 "HgN/A
1:00 AM86 °FPassing clouds.7 mph66%29.77 "HgN/A
12:00 AM86 °FPassing clouds.8 mph66%29.77 "HgN/A
Weather by CustomWeather, © 2016

See weather overviewHow to use our weather pages